Location: Paris
(48.6709°N, 2.3750°E)
Time: 10:00:12
(UTC+02:00)

LO-87 - Pass Details

Date: 04 July 2022
Orbit: 451 x 466 km, 97.4° (Epoch: 09 August)

Event Time Altitude Azimuth Distance (km) Brightness Sun altitude
Exits shadow 01:55:51 30° 246° (WSW) 862 ? -18.4°
Maximum altitude 01:56:20 31° 263° (W) 836 ? -18.4°
Drops below altitude 10° 01:59:29 10° 328° (NNW) 1,628 ? -18.4°
Sets 02:01:43 0° 339° (NNW) 2,513 ? -18.4°
